Time,TemperatureF,DewpointF,PressureIn,WindDirection,WindDirectionDegrees,WindSpeedMPH,WindSpeedGustMPH,Humidity,HourlyPrecipIn,Conditions,Clouds,dailyrainin,SoftwareType,DateUTC
2013-08-07 00:01:00,68.8,63.5,30.06,NNE,30,0.0,0.0,83,0.00,,CLR,0.00,VWS V14.00,2013-08-07 04:01:00,
2013-08-07 00:02:00,68.8,63.8,30.06,NNE,30,0.0,0.0,84,0.00,,CLR,0.00,VWS V14.00,2013-08-07 04:02:00,
2013-08-07 00:07:00,68.7,63.7,30.06,NNE,30,0.0,0.0,84,0.00,,CLR,0.00,VWS V14.00,2013-08-07 04:07:00,
2013-08-07 00:12:00,68.3,63.6,30.06,NNW,333,0.0,3.2,85,0.00,,CLR,0.00,VWS V14.00,2013-08-07 04:12:00,
2013-08-07 00:17:00,68.1,63.8,30.09,ENE,59,0.0,0.0,86,0.00,,CLR,0.00,VWS V14.00,2013-08-07 04:17:00,
2013-08-07 00:22:00,68.3,64.0,30.09,ENE,59,0.0,0.0,86,0.00,,CLR,0.00,VWS V14.00,2013-08-07 04:22:00,
2013-08-07 00:27:00,68.5,64.1,30.09,ENE,59,0.0,0.0,86,0.00,,CLR,0.00,VWS V14.00,2013-08-07 04:27:00,
2013-08-07 00:32:00,68.5,64.1,30.09,ENE,60,0.0,0.0,86,0.00,,CLR,0.00,VWS V14.00,2013-08-07 04:32:00,
2013-08-07 00:37:00,68.1,64.4,30.09,ENE,59,0.0,0.0,88,0.00,,CLR,0.00,VWS V14.00,2013-08-07 04:37:00,
2013-08-07 00:42:00,68.1,64.8,30.09,ENE,60,0.0,0.0,89,0.00,,CLR,0.00,VWS V14.00,2013-08-07 04:42:00,
2013-08-07 00:47:00,68.1,65.1,30.09,ENE,59,0.0,0.0,90,0.00,,CLR,0.00,VWS V14.00,2013-08-07 04:47:00,
2013-08-07 00:53:00,68.1,65.1,30.09,ENE,59,0.0,0.0,90,0.00,,CLR,0.00,VWS V14.00,2013-08-07 04:53:00,
2013-08-07 00:58:00,68.1,65.4,30.09,ENE,60,0.0,0.0,91,0.00,,CLR,0.00,VWS V14.00,2013-08-07 04:58:00,
2013-08-07 01:03:00,67.9,65.5,30.09,ENE,59,0.0,0.0,92,0.00,,SCT029,0.00,VWS V14.00,2013-08-07 05:03:00,
2013-08-07 01:08:00,67.9,65.5,30.09,North,3,0.0,0.0,92,0.00,,SCT029,0.00,VWS V14.00,2013-08-07 05:08:00,
2013-08-07 01:13:00,68.1,65.7,30.09,North,3,0.0,0.0,92,0.00,,SCT029,0.00,VWS V14.00,2013-08-07 05:13:00,
2013-08-07 01:18:00,68.1,65.4,30.09,North,3,0.0,0.0,91,0.00,,SCT029,0.00,VWS V14.00,2013-08-07 05:18:00,
2013-08-07 01:23:00,68.1,65.4,30.09,North,3,0.0,0.0,91,0.00,,SCT029,0.00,VWS V14.00,2013-08-07 05:23:00,
2013-08-07 01:28:00,68.3,65.3,30.09,ENE,61,2.5,3.2,90,0.00,,SCT029,0.00,VWS V14.00,2013-08-07 05:28:00,
2013-08-07 01:33:00,68.1,65.1,30.09,ENE,61,0.0,2.7,90,0.00,,SCT029,0.00,VWS V14.00,2013-08-07 05:33:00,
2013-08-07 01:38:00,68.1,65.1,30.09,ENE,61,0.0,0.0,90,0.00,,SCT029,0.00,VWS V14.00,2013-08-07 05:38:00,
2013-08-07 01:44:00,68.1,65.4,30.09,ENE,61,0.0,0.0,91,0.00,,SCT029,0.00,VWS V14.00,2013-08-07 05:44:00,
2013-08-07 01:49:00,68.1,65.4,30.09,ENE,61,0.0,0.0,91,0.00,,SCT029,0.00,VWS V14.00,2013-08-07 05:49:00,
2013-08-07 01:54:00,67.9,65.2,30.09,ENE,61,0.0,0.0,91,0.00,,SCT029,0.00,VWS V14.00,2013-08-07 05:54:00,
2013-08-07 01:59:00,68.1,65.4,30.09,ENE,61,0.0,0.0,91,0.00,,SCT029,0.00,VWS V14.00,2013-08-07 05:59:00,
2013-08-07 02:04:00,68.1,65.4,30.09,ENE,61,0.0,0.0,91,0.00,,FEW036,0.00,VWS V14.00,2013-08-07 06:04:00,
2013-08-07 02:09:00,68.1,65.4,30.09,ENE,61,0.0,0.0,91,0.00,,FEW036,0.00,VWS V14.00,2013-08-07 06:09:00,
2013-08-07 02:14:00,68.1,65.1,30.09,ENE,61,0.0,0.0,90,0.00,,FEW036,0.00,VWS V14.00,2013-08-07 06:14:00,
2013-08-07 02:19:00,68.1,65.4,30.09,ENE,61,0.0,0.0,91,0.00,,FEW036,0.00,VWS V14.00,2013-08-07 06:19:00,
2013-08-07 02:24:00,68.1,65.4,30.09,ENE,61,0.0,0.0,91,0.00,,FEW036,0.00,VWS V14.00,2013-08-07 06:24:00,
2013-08-07 02:30:00,68.1,65.4,30.09,ENE,61,0.0,0.0,91,0.00,,FEW036,0.00,VWS V14.00,2013-08-07 06:30:00,
2013-08-07 02:35:00,68.1,65.4,30.09,ENE,61,0.0,0.0,91,0.00,,FEW036,0.00,VWS V14.00,2013-08-07 06:35:00,
2013-08-07 02:40:00,68.1,65.7,30.09,ENE,61,0.0,0.0,92,0.00,,FEW036,0.00,VWS V14.00,2013-08-07 06:40:00,
2013-08-07 02:45:00,67.9,65.8,30.09,ENE,61,0.0,0.0,93,0.00,,FEW036,0.00,VWS V14.00,2013-08-07 06:45:00,
2013-08-07 02:50:00,67.9,66.4,30.09,ENE,61,0.0,0.0,95,0.00,,FEW036,0.00,VWS V14.00,2013-08-07 06:50:00,
2013-08-07 02:55:00,67.7,66.6,30.09,ENE,61,0.0,0.0,96,0.00,,FEW036,0.00,VWS V14.00,2013-08-07 06:55:00,
2013-08-07 03:00:00,67.9,66.8,30.09,ENE,61,0.0,0.0,96,0.00,,OVC050,0.00,VWS V14.00,2013-08-07 07:00:00,
2013-08-07 03:05:00,68.1,66.9,30.09,ENE,61,0.0,0.0,96,0.00,,OVC050,0.00,VWS V14.00,2013-08-07 07:05:00,
2013-08-07 03:10:00,68.1,66.6,30.09,ENE,61,0.0,0.0,95,0.00,,OVC050,0.00,VWS V14.00,2013-08-07 07:10:00,
2013-08-07 03:15:00,68.1,66.3,30.06,ENE,61,0.0,0.0,94,0.00,,OVC050,0.00,VWS V14.00,2013-08-07 07:15:00,
2013-08-07 03:20:00,68.1,66.3,30.06,ENE,61,0.0,0.0,94,0.00,,OVC050,0.00,VWS V14.00,2013-08-07 07:20:00,
2013-08-07 03:26:00,68.1,66.3,30.06,ENE,61,0.0,0.0,94,0.00,,OVC050,0.00,VWS V14.00,2013-08-07 07:26:00,
2013-08-07 03:31:00,67.9,66.4,30.09,ENE,61,0.0,0.0,95,0.00,,OVC050,0.00,VWS V14.00,2013-08-07 07:31:00,
2013-08-07 03:36:00,67.9,67.1,30.09,ENE,61,0.0,0.0,97,0.00,,OVC050,0.00,VWS V14.00,2013-08-07 07:36:00,
2013-08-07 03:41:00,67.9,67.1,30.09,ENE,61,0.0,0.0,97,0.00,,OVC050,0.00,VWS V14.00,2013-08-07 07:41:00,
2013-08-07 03:46:00,68.1,67.2,30.09,ENE,61,0.0,0.0,97,0.00,,OVC050,0.00,VWS V14.00,2013-08-07 07:46:00,
2013-08-07 03:51:00,68.1,66.9,30.09,ENE,61,0.0,0.0,96,0.00,,OVC050,0.00,VWS V14.00,2013-08-07 07:51:00,
2013-08-07 03:56:00,68.1,66.6,30.09,ENE,61,0.0,0.0,95,0.00,,OVC050,0.00,VWS V14.00,2013-08-07 07:56:00,
2013-08-07 04:01:00,68.1,66.3,30.09,ENE,61,0.0,0.0,94,0.00,,FEW027,0.00,VWS V14.00,2013-08-07 08:01:00,
2013-08-07 04:06:00,68.1,66.3,30.09,ENE,61,0.0,0.0,94,0.00,,FEW027,0.00,VWS V14.00,2013-08-07 08:06:00,
2013-08-07 04:11:00,68.1,66.3,30.09,ENE,61,0.0,0.0,94,0.00,,FEW027,0.00,VWS V14.00,2013-08-07 08:11:00,
2013-08-07 04:16:00,68.1,66.3,30.09,ENE,61,0.0,0.0,94,0.00,,FEW027,0.00,VWS V14.00,2013-08-07 08:16:00,
2013-08-07 04:21:00,68.1,66.3,30.09,ENE,61,0.0,0.0,94,0.00,,FEW027,0.00,VWS V14.00,2013-08-07 08:21:00,
2013-08-07 04:27:00,67.9,66.1,30.09,ENE,61,0.0,0.0,94,0.00,,FEW027,0.00,VWS V14.00,2013-08-07 08:27:00,
2013-08-07 04:32:00,67.9,66.1,30.09,ENE,61,0.0,0.0,94,0.00,,FEW027,0.00,VWS V14.00,2013-08-07 08:32:00,
2013-08-07 04:37:00,67.9,66.1,30.09,ENE,61,0.0,0.0,94,0.00,,FEW027,0.00,VWS V14.00,2013-08-07 08:37:00,
2013-08-07 04:42:00,67.9,66.1,30.09,ENE,61,0.0,0.0,94,0.00,,FEW027,0.00,VWS V14.00,2013-08-07 08:42:00,
2013-08-07 04:47:00,67.9,66.1,30.09,ENE,61,0.0,0.0,94,0.00,,FEW027,0.00,VWS V14.00,2013-08-07 08:47:00,
2013-08-07 04:52:00,67.9,66.1,30.09,ENE,61,0.0,0.0,94,0.00,,FEW027,0.00,VWS V14.00,2013-08-07 08:52:00,
2013-08-07 04:57:00,67.9,66.1,30.09,ENE,61,0.0,0.0,94,0.00,,FEW027,0.00,VWS V14.00,2013-08-07 08:57:00,
2013-08-07 05:02:00,67.9,66.1,30.09,ENE,61,0.0,0.0,94,0.00,,SCT036,0.00,VWS V14.00,2013-08-07 09:02:00,
2013-08-07 05:07:00,67.9,66.4,30.09,ENE,61,0.0,0.0,95,0.00,,SCT036,0.00,VWS V14.00,2013-08-07 09:07:00,
2013-08-07 05:13:00,67.9,66.4,30.09,ENE,61,0.0,0.0,95,0.00,,SCT036,0.00,VWS V14.00,2013-08-07 09:13:00,
2013-08-07 05:18:00,67.9,66.8,30.09,ENE,61,0.0,0.0,96,0.00,,SCT036,0.00,VWS V14.00,2013-08-07 09:18:00,
2013-08-07 05:23:00,67.9,66.8,30.09,SSW,201,0.0,0.0,96,0.00,,SCT036,0.00,VWS V14.00,2013-08-07 09:23:00,
2013-08-07 05:28:00,67.9,66.8,30.09,SSW,201,0.0,0.0,96,0.00,,SCT036,0.00,VWS V14.00,2013-08-07 09:28:00,
2013-08-07 05:33:00,67.9,67.1,30.09,SSW,200,0.0,0.0,97,0.00,,SCT036,0.00,VWS V14.00,2013-08-07 09:33:00,
2013-08-07 05:38:00,67.7,66.9,30.09,SSW,201,0.0,0.0,97,0.00,,SCT036,0.00,VWS V14.00,2013-08-07 09:38:00,
2013-08-07 05:43:00,67.9,67.1,30.09,SSW,201,0.0,0.0,97,0.00,,SCT036,0.00,VWS V14.00,2013-08-07 09:43:00,
2013-08-07 05:48:00,67.9,67.1,30.09,SSW,201,0.0,0.0,97,0.00,,SCT036,0.00,VWS V14.00,2013-08-07 09:48:00,
2013-08-07 05:53:00,68.1,67.2,30.09,SSW,201,0.0,0.0,97,0.00,,SCT036,0.00,VWS V14.00,2013-08-07 09:53:00,
2013-08-07 05:58:00,67.9,67.1,30.09,SSW,200,0.0,0.0,97,0.00,,SCT036,0.00,VWS V14.00,2013-08-07 09:58:00,
2013-08-07 06:03:00,67.9,66.8,30.09,SSW,200,0.0,0.0,96,0.00,,FEW033,0.00,VWS V14.00,2013-08-07 10:03:00,
2013-08-07 06:09:00,67.9,66.8,30.09,SSW,201,0.0,0.0,96,0.00,,FEW033,0.00,VWS V14.00,2013-08-07 10:09:00,
2013-08-07 06:14:00,67.9,66.8,30.09,SSW,201,0.0,0.0,96,0.00,,FEW033,0.00,VWS V14.00,2013-08-07 10:14:00,
2013-08-07 06:19:00,67.9,67.1,30.09,SSW,200,0.0,0.0,97,0.00,,FEW033,0.00,VWS V14.00,2013-08-07 10:19:00,
2013-08-07 06:24:00,67.9,67.1,30.09,SSW,201,0.0,0.0,97,0.00,,FEW033,0.00,VWS V14.00,2013-08-07 10:24:00,
2013-08-07 06:29:00,67.9,67.1,30.09,SSW,201,0.0,0.0,97,0.00,,FEW033,0.00,VWS V14.00,2013-08-07 10:29:00,
2013-08-07 06:34:00,68.1,67.2,30.09,SSW,201,0.0,0.0,97,0.00,,FEW033,0.00,VWS V14.00,2013-08-07 10:34:00,
2013-08-07 06:39:00,67.9,67.3,30.09,WSW,248,0.0,0.0,98,0.00,,FEW033,0.00,VWS V14.00,2013-08-07 10:39:00,
2013-08-07 06:44:00,68.1,67.2,30.09,WSW,248,0.0,0.0,97,0.00,,FEW033,0.00,VWS V14.00,2013-08-07 10:44:00,
2013-08-07 06:49:00,67.9,67.3,30.09,WSW,248,0.0,0.0,98,0.00,,FEW033,0.00,VWS V14.00,2013-08-07 10:49:00,
2013-08-07 06:54:00,68.1,67.5,30.09,WSW,248,0.0,0.0,98,0.00,,FEW033,0.00,VWS V14.00,2013-08-07 10:54:00,
2013-08-07 06:59:00,68.1,67.2,30.09,WSW,248,0.0,0.0,97,0.00,,FEW033,0.00,VWS V14.00,2013-08-07 10:59:00,
2013-08-07 07:05:00,68.1,67.2,30.09,WSW,248,0.0,0.0,97,0.00,,BKN038,0.00,VWS V14.00,2013-08-07 11:05:00,
2013-08-07 07:10:00,68.1,67.2,30.09,WSW,248,0.0,0.0,97,0.00,,BKN038,0.00,VWS V14.00,2013-08-07 11:10:00,
2013-08-07 07:15:00,67.9,67.3,30.09,WSW,248,0.0,0.0,98,0.00,,BKN038,0.00,VWS V14.00,2013-08-07 11:15:00,
2013-08-07 07:20:00,68.1,67.5,30.09,WSW,248,0.0,0.0,98,0.00,,BKN038,0.00,VWS V14.00,2013-08-07 11:20:00,
2013-08-07 07:25:00,68.1,67.5,30.09,WSW,248,0.0,0.0,98,0.00,,BKN038,0.00,VWS V14.00,2013-08-07 11:25:00,
2013-08-07 07:30:00,68.1,67.5,30.09,WSW,248,0.0,0.0,98,0.00,,BKN038,0.00,VWS V14.00,2013-08-07 11:30:00,
2013-08-07 07:35:00,68.3,67.7,30.09,WSW,248,0.0,0.0,98,0.00,,BKN038,0.00,VWS V14.00,2013-08-07 11:35:00,
2013-08-07 07:40:00,68.3,67.7,30.09,WSW,248,0.0,0.0,98,0.00,,BKN038,0.00,VWS V14.00,2013-08-07 11:40:00,
2013-08-07 07:46:00,68.3,67.7,30.09,WSW,248,0.0,0.0,98,0.00,,BKN038,0.00,VWS V14.00,2013-08-07 11:46:00,
2013-08-07 07:51:00,68.5,67.9,30.09,WSW,248,0.0,0.0,98,0.00,,BKN038,0.00,VWS V14.00,2013-08-07 11:51:00,
2013-08-07 07:56:00,68.5,67.9,30.09,WSW,248,0.0,0.0,98,0.00,,BKN038,0.00,VWS V14.00,2013-08-07 11:56:00,
2013-08-07 08:01:00,68.7,68.1,30.09,WSW,248,0.0,0.0,98,0.00,,FEW023,0.00,VWS V14.00,2013-08-07 12:01:00,
2013-08-07 08:06:00,68.7,68.1,30.09,WSW,248,0.0,0.0,98,0.00,,FEW023,0.00,VWS V14.00,2013-08-07 12:06:00,
2013-08-07 08:11:00,68.7,68.1,30.09,WSW,248,0.0,0.0,98,0.00,,FEW023,0.00,VWS V14.00,2013-08-07 12:11:00,
2013-08-07 08:16:00,68.7,68.1,30.09,WSW,248,0.0,0.0,98,0.00,,FEW023,0.00,VWS V14.00,2013-08-07 12:16:00,
2013-08-07 08:21:00,68.7,68.1,30.09,WSW,248,0.0,0.0,98,0.00,,FEW023,0.00,VWS V14.00,2013-08-07 12:21:00,
2013-08-07 08:26:00,68.8,68.3,30.09,WSW,248,0.0,0.0,98,0.00,,FEW023,0.00,VWS V14.00,2013-08-07 12:26:00,
2013-08-07 08:31:00,69.0,68.5,30.09,NW,318,2.5,2.7,98,0.00,,FEW023,0.00,VWS V14.00,2013-08-07 12:31:00,
2013-08-07 08:37:00,69.0,68.5,30.09,NNW,331,3.0,3.2,98,0.00,,FEW023,0.00,VWS V14.00,2013-08-07 12:37:00,
2013-08-07 08:42:00,69.2,68.6,30.09,NNW,342,2.5,2.7,98,0.00,,FEW023,0.00,VWS V14.00,2013-08-07 12:42:00,
2013-08-07 08:47:00,69.4,68.8,30.12,NNW,339,3.0,3.2,98,0.00,,FEW023,0.00,VWS V14.00,2013-08-07 12:47:00,
2013-08-07 08:52:00,69.6,69.0,30.12,WNW,302,0.0,0.0,98,0.00,,FEW023,0.00,VWS V14.00,2013-08-07 12:52:00,
2013-08-07 08:57:00,69.8,69.2,30.12,WSW,242,0.0,2.7,98,0.00,,FEW023,0.00,VWS V14.00,2013-08-07 12:57:00,
2013-08-07 09:02:00,69.8,68.9,30.12,WSW,242,0.0,0.0,97,0.00,,SCT021,0.00,VWS V14.00,2013-08-07 13:02:00,
2013-08-07 09:07:00,70.0,68.8,30.12,WNW,303,0.0,0.0,96,0.00,,SCT021,0.00,VWS V14.00,2013-08-07 13:07:00,
2013-08-07 09:12:00,70.0,68.8,30.12,NW,323,2.5,3.8,96,0.00,,SCT021,0.00,VWS V14.00,2013-08-07 13:12:00,
2013-08-07 09:17:00,70.2,69.0,30.12,North,3,0.0,0.0,96,0.00,,SCT021,0.00,VWS V14.00,2013-08-07 13:17:00,
2013-08-07 09:22:00,70.3,69.2,30.12,NW,320,3.4,3.8,96,0.00,,SCT021,0.00,VWS V14.00,2013-08-07 13:22:00,
2013-08-07 09:28:00,70.5,69.3,30.12,NW,316,2.5,2.7,96,0.00,,SCT021,0.00,VWS V14.00,2013-08-07 13:28:00,
2013-08-07 09:33:00,70.7,69.5,30.09,NW,324,3.4,4.8,96,0.00,,SCT021,0.00,VWS V14.00,2013-08-07 13:33:00,
2013-08-07 09:38:00,70.7,69.2,30.09,NW,322,3.0,4.3,95,0.00,,SCT021,0.00,VWS V14.00,2013-08-07 13:38:00,
2013-08-07 09:43:00,70.9,69.4,30.09,NW,313,2.5,3.2,95,0.00,,SCT021,0.00,VWS V14.00,2013-08-07 13:43:00,
2013-08-07 09:48:00,70.9,69.1,30.12,NW,313,0.0,0.0,94,0.00,,BKN022,0.00,VWS V14.00,2013-08-07 13:48:00,
2013-08-07 09:53:00,70.9,68.5,30.12,NW,313,0.0,0.0,92,0.00,,BKN022,0.00,VWS V14.00,2013-08-07 13:53:00,
2013-08-07 09:58:00,70.9,68.5,30.12,NW,313,0.0,0.0,92,0.00,,BKN022,0.00,VWS V14.00,2013-08-07 13:58:00,
2013-08-07 10:03:00,71.3,68.5,30.09,NW,321,3.4,3.8,91,0.00,,OVC019,0.00,VWS V14.00,2013-08-07 14:03:00,
2013-08-07 10:08:00,71.4,68.7,30.09,West,276,2.5,3.2,91,0.00,,OVC019,0.00,VWS V14.00,2013-08-07 14:08:00,
2013-08-07 10:13:00,71.8,69.1,30.09,WSW,240,3.0,3.2,91,0.00,,OVC019,0.00,VWS V14.00,2013-08-07 14:13:00,
2013-08-07 10:19:00,72.0,68.9,30.09,SSE,167,3.4,3.8,90,0.00,,OVC019,0.00,VWS V14.00,2013-08-07 14:19:00,
2013-08-07 10:24:00,72.0,68.6,30.09,SSW,193,3.4,4.8,89,0.00,,OVC019,0.00,VWS V14.00,2013-08-07 14:24:00,
2013-08-07 10:29:00,72.2,68.8,30.09,SSE,162,3.4,4.3,89,0.00,,OVC019,0.00,VWS V14.00,2013-08-07 14:29:00,
2013-08-07 10:34:00,72.4,67.6,30.09,SSE,155,3.4,4.3,85,0.00,,OVC019,0.00,VWS V14.00,2013-08-07 14:34:00,
2013-08-07 10:39:00,72.4,67.6,30.09,SSE,157,3.9,4.8,85,0.00,,OVC019,0.00,VWS V14.00,2013-08-07 14:39:00,
2013-08-07 10:44:00,72.6,67.5,30.09,SSE,163,3.4,4.3,84,0.00,,OVC019,0.00,VWS V14.00,2013-08-07 14:44:00,
2013-08-07 10:49:00,72.6,67.1,30.09,SSE,167,3.0,4.8,83,0.00,,OVC019,0.00,VWS V14.00,2013-08-07 14:49:00,
2013-08-07 10:54:00,72.8,67.3,30.09,SSE,163,0.0,3.8,83,0.00,,OVC019,0.00,VWS V14.00,2013-08-07 14:54:00,
2013-08-07 10:59:00,72.9,67.5,30.09,SSE,160,5.4,5.9,83,0.00,,OVC019,0.00,VWS V14.00,2013-08-07 14:59:00,
2013-08-07 11:04:00,72.9,67.5,30.09,South,181,2.5,3.8,83,0.00,,OVC019,0.00,VWS V14.00,2013-08-07 15:04:00,
2013-08-07 11:09:00,73.5,68.4,30.09,WNW,285,3.4,3.8,84,0.00,,OVC019,0.00,VWS V14.00,2013-08-07 15:09:00,
2013-08-07 11:14:00,73.9,68.4,30.09,NW,326,3.0,4.8,83,0.00,,OVC019,0.00,VWS V14.00,2013-08-07 15:14:00,
2013-08-07 11:20:00,73.9,67.7,30.09,South,185,2.5,3.8,81,0.00,,OVC017,0.00,VWS V14.00,2013-08-07 15:20:00,
2013-08-07 11:25:00,73.7,67.5,30.09,WNW,287,3.4,3.8,81,0.00,,OVC017,0.00,VWS V14.00,2013-08-07 15:25:00,
2013-08-07 11:30:00,73.7,67.5,30.09,SSE,165,2.5,4.3,81,0.00,,OVC017,0.00,VWS V14.00,2013-08-07 15:30:00,
2013-08-07 11:35:00,73.7,67.5,30.12,West,273,3.9,4.8,81,0.00,,OVC017,0.00,VWS V14.00,2013-08-07 15:35:00,
2013-08-07 11:40:00,73.7,67.5,30.12,WSW,239,3.0,4.3,81,0.00,,OVC017,0.00,VWS V14.00,2013-08-07 15:40:00,
2013-08-07 11:45:00,74.1,68.2,30.12,WNW,293,3.9,6.4,82,0.00,,OVC017,0.00,VWS V14.00,2013-08-07 15:45:00,
2013-08-07 11:50:00,74.1,68.6,30.12,WNW,283,3.4,3.8,83,0.00,,OVC017,0.00,VWS V14.00,2013-08-07 15:50:00,
2013-08-07 11:55:00,74.4,68.6,30.12,WSW,241,3.4,4.8,82,0.00,,OVC017,0.00,VWS V14.00,2013-08-07 15:55:00,
2013-08-07 12:00:00,74.6,68.0,30.12,NNW,330,4.4,7.0,80,0.00,,BKN023,0.00,VWS V14.00,2013-08-07 16:00:00,
2013-08-07 12:05:00,74.8,68.2,30.12,NW,322,3.4,4.3,80,0.00,,BKN023,0.00,VWS V14.00,2013-08-07 16:05:00,
2013-08-07 12:10:00,75.2,68.2,30.12,WSW,247,3.0,3.8,79,0.00,,BKN023,0.00,VWS V14.00,2013-08-07 16:10:00,
2013-08-07 12:16:00,75.3,68.0,30.12,SW,215,2.5,3.8,78,0.00,,BKN023,0.00,VWS V14.00,2013-08-07 16:16:00,
2013-08-07 12:21:00,75.9,68.9,30.12,NW,322,3.9,4.8,79,0.00,,BKN023,0.00,VWS V14.00,2013-08-07 16:21:00,
2013-08-07 12:26:00,75.7,68.0,30.12,SW,224,3.4,3.8,77,0.00,,BKN023,0.00,VWS V14.00,2013-08-07 16:26:00,
2013-08-07 12:31:00,75.7,68.0,30.12,SW,223,2.5,3.2,77,0.00,,BKN023,0.00,VWS V14.00,2013-08-07 16:31:00,
2013-08-07 12:36:00,75.5,67.4,30.12,SSW,197,2.5,4.3,76,0.00,,BKN023,0.00,VWS V14.00,2013-08-07 16:36:00,
2013-08-07 12:41:00,75.7,68.0,30.12,West,264,2.5,2.7,77,0.00,,BKN023,0.00,VWS V14.00,2013-08-07 16:41:00,
2013-08-07 12:46:00,75.9,67.8,30.12,SSE,156,3.4,3.8,76,0.00,,OVC050,0.00,VWS V14.00,2013-08-07 16:46:00,
2013-08-07 12:51:00,75.9,67.8,30.12,SSW,200,0.0,0.0,76,0.00,,OVC050,0.00,VWS V14.00,2013-08-07 16:51:00,
2013-08-07 12:56:00,75.9,67.8,30.12,SSE,155,3.0,3.2,76,0.00,,OVC050,0.00,VWS V14.00,2013-08-07 16:56:00,
2013-08-07 13:02:00,76.1,67.6,30.09,SE,130,2.5,4.8,75,0.00,,OVC050,0.00,VWS V14.00,2013-08-07 17:02:00,
2013-08-07 13:07:00,76.6,68.1,30.09,South,186,3.0,3.2,75,0.00,,OVC050,0.00,VWS V14.00,2013-08-07 17:07:00,
2013-08-07 13:12:00,76.6,67.3,30.09,WSW,240,0.0,0.0,73,0.00,,OVC050,0.00,VWS V14.00,2013-08-07 17:12:00,
2013-08-07 13:17:00,76.5,67.9,30.09,SSE,163,3.9,4.8,75,0.00,,OVC050,0.00,VWS V14.00,2013-08-07 17:17:00,
2013-08-07 13:22:00,76.1,67.6,30.09,SE,134,3.9,6.4,75,0.00,,OVC050,0.00,VWS V14.00,2013-08-07 17:22:00,
2013-08-07 13:27:00,76.5,67.9,30.09,South,185,3.9,4.8,75,0.00,,OVC050,0.00,VWS V14.00,2013-08-07 17:27:00,
2013-08-07 13:32:00,77.6,68.6,30.09,SE,140,4.4,4.8,74,0.00,,BKN050,0.00,VWS V14.00,2013-08-07 17:32:00,
2013-08-07 13:37:00,77.8,68.0,30.09,SW,220,6.4,7.0,72,0.00,,BKN050,0.00,VWS V14.00,2013-08-07 17:37:00,
2013-08-07 13:42:00,77.6,66.6,30.09,South,184,5.9,6.4,69,0.00,,BKN050,0.00,VWS V14.00,2013-08-07 17:42:00,
2013-08-07 13:47:00,78.1,68.0,30.09,SW,225,3.0,5.9,71,0.00,,BKN050,0.00,VWS V14.00,2013-08-07 17:47:00,
2013-08-07 13:53:00,77.9,67.0,30.09,SSW,195,5.4,5.9,69,0.00,,BKN050,0.00,VWS V14.00,2013-08-07 17:53:00,
2013-08-07 13:58:00,77.8,66.8,30.09,SSE,154,4.4,5.9,69,0.00,,BKN050,0.00,VWS V14.00,2013-08-07 17:58:00,
2013-08-07 14:03:00,78.1,68.4,30.09,South,169,2.5,4.8,72,0.00,,OVC041,0.00,VWS V14.00,2013-08-07 18:03:00,
2013-08-07 14:08:00,78.5,68.7,30.09,South,180,3.9,4.3,72,0.00,,OVC041,0.00,VWS V14.00,2013-08-07 18:08:00,
2013-08-07 14:13:00,78.5,67.5,30.09,SSE,155,5.9,6.4,69,0.00,,OVC041,0.00,VWS V14.00,2013-08-07 18:13:00,
2013-08-07 14:18:00,78.3,67.7,30.09,West,278,3.0,4.8,70,0.00,,OVC110,0.00,VWS V14.00,2013-08-07 18:18:00,
2013-08-07 14:23:00,78.1,67.1,30.09,South,170,4.4,8.1,69,0.00,,OVC110,0.00,VWS V14.00,2013-08-07 18:23:00,
2013-08-07 14:28:00,77.9,67.0,30.09,SSW,194,6.4,7.0,69,0.00,,OVC110,0.00,VWS V14.00,2013-08-07 18:28:00,
2013-08-07 14:33:00,77.8,66.8,30.09,South,183,7.4,8.1,69,0.00,, +RA,0.00,VWS V14.00,2013-08-07 18:33:00,
2013-08-07 14:38:00,77.8,67.6,30.09,SSW,203,4.4,4.8,71,0.00,, +RA,0.00,VWS V14.00,2013-08-07 18:38:00,
2013-08-07 14:43:00,77.9,67.8,30.09,SSW,203,5.9,6.4,71,0.00,, +RA,0.00,VWS V14.00,2013-08-07 18:43:00,
2013-08-07 14:48:00,78.1,68.0,30.09,South,172,3.9,8.1,71,0.00,,RA,0.00,VWS V14.00,2013-08-07 18:48:00,
2013-08-07 14:53:00,78.1,67.6,30.09,SE,144,3.4,7.0,70,0.00,,RA,0.00,VWS V14.00,2013-08-07 18:53:00,
2013-08-07 14:58:00,78.5,67.9,30.09,South,189,0.0,7.0,70,0.00,,RA,0.00,VWS V14.00,2013-08-07 18:58:00,
2013-08-07 15:03:00,78.7,68.1,30.06,East,84,0.0,2.7,70,0.00,,RA,0.00,VWS V14.00,2013-08-07 19:03:00,
2013-08-07 15:09:00,78.1,67.6,30.06,South,182,3.4,4.3,70,0.00,,RA,0.00,VWS V14.00,2013-08-07 19:09:00,
2013-08-07 15:14:00,77.9,67.8,30.06,South,178,3.9,5.9,71,0.00,,RA,0.00,VWS V14.00,2013-08-07 19:14:00,
2013-08-07 15:19:00,77.8,68.0,30.06,NNE,15,2.5,2.7,72,0.00,,-RA,0.00,VWS V14.00,2013-08-07 19:19:00,
2013-08-07 15:24:00,77.8,68.4,30.06,SSE,154,3.9,5.9,73,0.00,,-RA,0.00,VWS V14.00,2013-08-07 19:24:00,
2013-08-07 15:29:00,77.8,68.4,30.06,SSE,166,6.4,7.0,73,0.00,,-RA,0.00,VWS V14.00,2013-08-07 19:29:00,
2013-08-07 15:34:00,77.8,68.0,30.06,SSE,168,6.4,7.0,72,0.00,,-RA,0.00,VWS V14.00,2013-08-07 19:34:00,
2013-08-07 15:39:00,77.6,67.8,30.06,SSE,148,3.0,3.2,72,0.00,,-RA,0.00,VWS V14.00,2013-08-07 19:39:00,
2013-08-07 15:44:00,77.8,68.0,30.06,SSE,157,5.4,7.5,72,0.00,,-RA,0.00,VWS V14.00,2013-08-07 19:44:00,
2013-08-07 15:49:00,77.9,68.6,30.06,SSE,167,3.0,6.4,73,0.00,, +RA,0.00,VWS V14.00,2013-08-07 19:49:00,
2013-08-07 15:54:00,77.8,68.0,30.06,SE,140,3.4,7.0,72,0.00,, +RA,0.00,VWS V14.00,2013-08-07 19:54:00,
2013-08-07 16:00:00,77.6,68.2,30.06,East,84,0.0,2.7,73,0.00,, +RA,0.00,VWS V14.00,2013-08-07 20:00:00,
2013-08-07 16:05:00,77.2,67.9,30.06,SSE,149,2.5,3.8,73,0.00,,-RA,0.00,VWS V14.00,2013-08-07 20:05:00,
2013-08-07 16:10:00,77.0,68.1,30.06,South,186,5.4,7.0,74,0.00,,-RA,0.00,VWS V14.00,2013-08-07 20:10:00,
2013-08-07 16:15:00,76.6,67.3,30.06,South,171,3.9,4.3,73,0.00,,-RA,0.00,VWS V14.00,2013-08-07 20:15:00,
2013-08-07 16:20:00,76.5,67.6,30.06,East,88,3.0,5.9,74,0.00,,RA,0.00,VWS V14.00,2013-08-07 20:20:00,
2013-08-07 16:25:00,76.3,67.4,30.06,SE,143,5.9,6.4,74,0.00,,RA,0.00,VWS V14.00,2013-08-07 20:25:00,
2013-08-07 16:30:00,76.1,67.6,30.06,SSE,159,2.5,4.8,75,0.00,,-RA,0.00,VWS V14.00,2013-08-07 20:30:00,
2013-08-07 16:35:00,76.1,67.6,30.06,ESE,103,3.0,7.5,75,0.00,,-RA,0.00,VWS V14.00,2013-08-07 20:35:00,
2013-08-07 16:40:00,75.9,67.4,30.06,East,96,4.4,4.8,75,0.00,,-RA,0.00,VWS V14.00,2013-08-07 20:40:00,
2013-08-07 16:45:00,75.5,67.8,30.06,South,170,3.9,4.3,77,0.00,,-RA,0.00,VWS V14.00,2013-08-07 20:45:00,
2013-08-07 16:50:00,75.2,67.8,30.06,SSW,210,3.9,4.3,78,0.01,,-RA,0.01,VWS V14.00,2013-08-07 20:50:00,
2013-08-07 16:55:00,74.8,68.2,30.06,WSW,243,3.4,5.9,80,0.03,,-RA,0.03,VWS V14.00,2013-08-07 20:55:00,
2013-08-07 17:00:00,74.2,69.1,30.09,SSE,163,0.0,3.2,84,0.07,,SCT100,0.07,VWS V14.00,2013-08-07 21:00:00,
2013-08-07 17:05:00,73.7,69.2,30.09,South,175,0.0,0.0,86,0.09,,SCT100,0.09,VWS V14.00,2013-08-07 21:05:00,
2013-08-07 17:11:00,73.1,69.7,30.09,NW,319,3.0,4.8,89,0.10,,SCT100,0.10,VWS V14.00,2013-08-07 21:11:00,
2013-08-07 17:16:00,72.4,69.3,30.09,NW,322,2.5,4.3,90,0.10,,SCT100,0.10,VWS V14.00,2013-08-07 21:16:00,
2013-08-07 17:21:00,72.4,69.0,30.09,NW,320,0.0,2.7,89,0.10,,SCT100,0.10,VWS V14.00,2013-08-07 21:21:00,
2013-08-07 17:26:00,72.2,69.1,30.09,NW,325,0.0,3.2,90,0.10,,SCT100,0.10,VWS V14.00,2013-08-07 21:26:00,
2013-08-07 17:31:00,72.2,69.7,30.09,NW,325,0.0,0.0,92,0.10,,SCT100,0.10,VWS V14.00,2013-08-07 21:31:00,
2013-08-07 17:36:00,72.4,69.6,30.09,NW,325,0.0,0.0,91,0.10,,SCT100,0.10,VWS V14.00,2013-08-07 21:36:00,
2013-08-07 17:41:00,72.6,69.8,30.09,NW,325,0.0,0.0,91,0.10,,SCT100,0.10,VWS V14.00,2013-08-07 21:41:00,
2013-08-07 17:46:00,72.4,69.9,30.09,NW,325,0.0,2.7,92,0.10,,SCT100,0.10,VWS V14.00,2013-08-07 21:46:00,
2013-08-07 17:51:00,72.6,70.1,30.09,NW,325,0.0,0.0,92,0.09,,SCT100,0.10,VWS V14.00,2013-08-07 21:51:00,
2013-08-07 17:56:00,72.4,69.6,30.09,NW,325,0.0,0.0,91,0.07,,SCT100,0.10,VWS V14.00,2013-08-07 21:56:00,
2013-08-07 18:01:00,72.6,69.8,30.09,NW,325,0.0,0.0,91,0.04,,BKN046,0.10,VWS V14.00,2013-08-07 22:01:00,
2013-08-07 18:06:00,72.4,69.6,30.09,NW,325,0.0,0.0,91,0.01,,BKN046,0.10,VWS V14.00,2013-08-07 22:06:00,
2013-08-07 18:11:00,72.6,69.8,30.09,NW,325,0.0,0.0,91,0.00,,BKN046,0.10,VWS V14.00,2013-08-07 22:11:00,
2013-08-07 18:17:00,72.4,69.6,30.09,NW,325,0.0,0.0,91,0.00,,BKN046,0.10,VWS V14.00,2013-08-07 22:17:00,
2013-08-07 18:22:00,72.4,69.6,30.09,NW,325,0.0,0.0,91,0.00,,BKN046,0.10,VWS V14.00,2013-08-07 22:22:00,
2013-08-07 18:27:00,72.4,69.9,30.09,NW,325,0.0,0.0,92,0.00,,BKN046,0.10,VWS V14.00,2013-08-07 22:27:00,
2013-08-07 18:32:00,72.2,70.1,30.09,NW,325,0.0,0.0,93,0.00,,BKN046,0.10,VWS V14.00,2013-08-07 22:32:00,
2013-08-07 18:37:00,72.2,70.1,30.09,NW,325,0.0,0.0,93,0.00,,BKN046,0.10,VWS V14.00,2013-08-07 22:37:00,
2013-08-07 18:42:00,72.0,69.9,30.09,North,353,2.5,2.7,93,0.00,,BKN046,0.10,VWS V14.00,2013-08-07 22:42:00,
2013-08-07 18:47:00,72.0,70.2,30.09,North,353,0.0,0.0,94,0.00,,RA,0.10,VWS V14.00,2013-08-07 22:47:00,
2013-08-07 18:52:00,72.2,70.4,30.09,North,353,0.0,0.0,94,0.00,,RA,0.10,VWS V14.00,2013-08-07 22:52:00,
2013-08-07 18:57:00,72.0,70.2,30.09,North,353,0.0,0.0,94,0.00,,RA,0.10,VWS V14.00,2013-08-07 22:57:00,
2013-08-07 19:02:00,72.0,70.5,30.09,North,353,0.0,0.0,95,0.00,,-RA,0.10,VWS V14.00,2013-08-07 23:02:00,
2013-08-07 19:07:00,72.0,70.5,30.09,North,353,0.0,0.0,95,0.00,,-RA,0.10,VWS V14.00,2013-08-07 23:07:00,
2013-08-07 19:12:00,72.0,70.5,30.09,North,353,0.0,0.0,95,0.00,,-RA,0.10,VWS V14.00,2013-08-07 23:12:00,
2013-08-07 19:18:00,72.0,70.5,30.09,North,353,0.0,0.0,95,0.02,,-RA,0.12,VWS V14.00,2013-08-07 23:18:00,
2013-08-07 19:23:00,71.8,70.3,30.09,North,353,0.0,0.0,95,0.02,,-RA,0.12,VWS V14.00,2013-08-07 23:23:00,
2013-08-07 19:28:00,71.6,70.7,30.09,SSE,152,3.0,3.2,97,0.13,,-RA,0.23,VWS V14.00,2013-08-07 23:28:00,
2013-08-07 19:33:00,71.4,70.9,30.09,SE,136,6.9,13.2,98,0.20,,-RA,0.30,VWS V14.00,2013-08-07 23:33:00,
2013-08-07 19:38:00,71.6,71.0,30.09,SSE,157,6.4,7.0,98,0.22,,-RA,0.31,VWS V14.00,2013-08-07 23:38:00,
2013-08-07 19:43:00,71.6,71.0,30.09,SSW,211,2.5,7.0,98,0.23,,-RA,0.32,VWS V14.00,2013-08-07 23:43:00,
2013-08-07 19:48:00,71.4,70.6,30.09,SE,146,0.0,3.8,97,0.24,,-RA,0.33,VWS V14.00,2013-08-07 23:48:00,
2013-08-07 19:53:00,71.3,70.4,30.09,SSE,158,0.0,3.8,97,0.24,,-RA,0.33,VWS V14.00,2013-08-07 23:53:00,
2013-08-07 19:58:00,71.3,70.4,30.09,South,176,0.0,0.0,97,0.25,,-RA,0.34,VWS V14.00,2013-08-07 23:58:00,
2013-08-07 20:03:00,71.3,70.7,30.09,SSW,205,0.0,0.0,98,0.25,,OVC110,0.34,VWS V14.00,2013-08-08 00:03:00,
2013-08-07 20:08:00,71.1,70.5,30.09,SSW,205,0.0,0.0,98,0.26,,OVC110,0.35,VWS V14.00,2013-08-08 00:08:00,
2013-08-07 20:13:00,71.1,70.5,30.09,SSW,205,0.0,0.0,98,0.26,,OVC110,0.35,VWS V14.00,2013-08-08 00:13:00,
2013-08-07 20:18:00,71.1,70.5,30.09,SSW,205,0.0,0.0,98,0.24,,OVC110,0.35,VWS V14.00,2013-08-08 00:18:00,
2013-08-07 20:24:00,71.1,70.5,30.09,SSW,205,0.0,0.0,98,0.24,,OVC110,0.35,VWS V14.00,2013-08-08 00:24:00,
2013-08-07 20:29:00,71.1,70.5,30.09,SSW,205,0.0,0.0,98,0.15,,OVC110,0.35,VWS V14.00,2013-08-08 00:29:00,
2013-08-07 20:34:00,70.9,70.3,30.09,SSW,205,0.0,0.0,98,0.06,,OVC110,0.35,VWS V14.00,2013-08-08 00:34:00,
2013-08-07 20:39:00,70.7,70.1,30.09,SSW,205,0.0,0.0,98,0.06,,OVC110,0.35,VWS V14.00,2013-08-08 00:39:00,
2013-08-07 20:44:00,70.9,70.0,30.09,SSW,205,0.0,0.0,97,0.02,,OVC110,0.35,VWS V14.00,2013-08-08 00:44:00,
2013-08-07 20:49:00,70.7,70.1,30.09,SSW,205,0.0,0.0,98,0.02,,OVC110,0.35,VWS V14.00,2013-08-08 00:49:00,
2013-08-07 20:54:00,70.5,69.9,30.09,SSW,205,0.0,0.0,98,0.02,,OVC110,0.35,VWS V14.00,2013-08-08 00:54:00,
2013-08-07 20:59:00,70.5,69.9,30.09,SSW,205,0.0,0.0,98,0.01,,OVC110,0.35,VWS V14.00,2013-08-08 00:59:00,
2013-08-07 21:04:00,70.5,69.9,30.09,SSW,205,0.0,0.0,98,0.01,,-RA,0.35,VWS V14.00,2013-08-08 01:04:00,
2013-08-07 21:09:00,70.5,69.9,30.09,SSW,205,0.0,0.0,98,0.00,,-RA,0.35,VWS V14.00,2013-08-08 01:09:00,
2013-08-07 21:14:00,70.5,69.9,30.09,SSW,205,0.0,0.0,98,0.00,,-RA,0.35,VWS V14.00,2013-08-08 01:14:00,
2013-08-07 21:19:00,70.5,69.9,30.09,ESE,103,0.0,0.0,98,0.00,,-RA,0.35,VWS V14.00,2013-08-08 01:19:00,
2013-08-07 21:24:00,70.5,69.9,30.09,ESE,103,0.0,0.0,98,0.00,,-RA,0.35,VWS V14.00,2013-08-08 01:24:00,
2013-08-07 21:29:00,70.3,69.8,30.09,ESE,103,0.0,0.0,98,0.00,,-RA,0.35,VWS V14.00,2013-08-08 01:29:00,
2013-08-07 21:34:00,70.3,69.8,30.09,ESE,103,0.0,0.0,98,0.00,,-RA,0.35,VWS V14.00,2013-08-08 01:34:00,
2013-08-07 21:39:00,70.3,69.8,30.09,ESE,103,0.0,0.0,98,0.00,,-RA,0.35,VWS V14.00,2013-08-08 01:39:00,
2013-08-07 21:44:00,70.3,69.8,30.09,ESE,103,0.0,0.0,98,0.00,,-RA,0.35,VWS V14.00,2013-08-08 01:44:00,
2013-08-07 21:49:00,70.2,69.6,30.09,ESE,103,0.0,0.0,98,0.00,,-RA,0.35,VWS V14.00,2013-08-08 01:49:00,
2013-08-07 21:54:00,70.2,69.6,30.09,ESE,103,0.0,0.0,98,0.00,,-RA,0.35,VWS V14.00,2013-08-08 01:54:00,
2013-08-07 21:59:00,70.0,69.4,30.09,ESE,103,0.0,0.0,98,0.00,,-RA,0.35,VWS V14.00,2013-08-08 01:59:00,
2013-08-07 22:05:00,70.0,69.4,30.09,ESE,103,0.0,0.0,98,0.00,,OVC095,0.35,VWS V14.00,2013-08-08 02:05:00,
2013-08-07 22:10:00,70.0,69.4,30.09,ESE,103,0.0,0.0,98,0.00,,OVC095,0.35,VWS V14.00,2013-08-08 02:10:00,
2013-08-07 22:15:00,69.8,69.2,30.09,ESE,103,0.0,0.0,98,0.00,,OVC095,0.35,VWS V14.00,2013-08-08 02:15:00,
2013-08-07 22:20:00,70.0,69.4,30.09,ESE,103,0.0,0.0,98,0.00,,OVC095,0.35,VWS V14.00,2013-08-08 02:20:00,
2013-08-07 22:25:00,70.0,69.4,30.09,ESE,103,0.0,0.0,98,0.00,,OVC095,0.35,VWS V14.00,2013-08-08 02:25:00,
2013-08-07 22:30:00,70.0,69.4,30.12,ESE,103,0.0,0.0,98,0.00,,OVC095,0.35,VWS V14.00,2013-08-08 02:30:00,
2013-08-07 22:35:00,70.0,69.4,30.12,ESE,103,0.0,0.0,98,0.00,,OVC095,0.35,VWS V14.00,2013-08-08 02:35:00,
2013-08-07 22:40:00,70.0,69.4,30.12,ESE,103,0.0,0.0,98,0.00,,OVC095,0.35,VWS V14.00,2013-08-08 02:40:00,
2013-08-07 22:46:00,70.0,69.4,30.09,ESE,103,0.0,0.0,98,0.00,,OVC095,0.35,VWS V14.00,2013-08-08 02:46:00,
2013-08-07 22:51:00,70.0,69.4,30.09,ESE,103,0.0,0.0,98,0.00,,OVC095,0.35,VWS V14.00,2013-08-08 02:51:00,
2013-08-07 22:56:00,69.8,69.2,30.09,ESE,103,0.0,0.0,98,0.00,,OVC095,0.35,VWS V14.00,2013-08-08 02:56:00,
2013-08-07 23:01:00,69.8,69.2,30.09,ESE,103,0.0,0.0,98,0.00,,BKN046,0.35,VWS V14.00,2013-08-08 03:01:00,
2013-08-07 23:06:00,69.8,69.2,30.09,ESE,103,0.0,0.0,98,0.00,,BKN046,0.35,VWS V14.00,2013-08-08 03:06:00,
2013-08-07 23:11:00,69.8,69.2,30.09,ESE,103,0.0,0.0,98,0.00,,BKN046,0.35,VWS V14.00,2013-08-08 03:11:00,
2013-08-07 23:16:00,69.8,69.2,30.09,ESE,103,0.0,0.0,98,0.00,,BKN046,0.35,VWS V14.00,2013-08-08 03:16:00,
2013-08-07 23:21:00,69.8,69.2,30.09,ESE,103,0.0,0.0,98,0.00,,BKN046,0.35,VWS V14.00,2013-08-08 03:21:00,
2013-08-07 23:26:00,69.8,69.2,30.09,ESE,103,0.0,0.0,98,0.00,,BKN046,0.35,VWS V14.00,2013-08-08 03:26:00,
2013-08-07 23:31:00,69.8,69.2,30.09,ESE,103,0.0,0.0,98,0.00,,BKN046,0.35,VWS V14.00,2013-08-08 03:31:00,
2013-08-07 23:36:00,69.8,69.2,30.09,SSE,167,0.0,0.0,98,0.00,,BKN046,0.35,VWS V14.00,2013-08-08 03:36:00,
2013-08-07 23:42:00,69.6,69.0,30.09,SSE,167,0.0,0.0,98,0.00,,BKN046,0.35,VWS V14.00,2013-08-08 03:42:00,
2013-08-07 23:47:00,69.4,68.8,30.12,SW,226,0.0,0.0,98,0.00,,BKN046,0.35,VWS V14.00,2013-08-08 03:47:00,
2013-08-07 23:52:00,69.6,69.0,30.12,SW,225,0.0,0.0,98,0.00,,BKN046,0.35,VWS V14.00,2013-08-08 03:52:00,
2013-08-07 23:57:00,69.6,69.0,30.12,SW,225,0.0,0.0,98,0.00,,BKN046,0.35,VWS V14.00,2013-08-08 03:57:00,